This is the latest recevied weather packets stored in our database for station/object MB7UUE. If no packets are shown the sender has not sent any weather packets the latest 10 day(s).
| Time | Temp. | Humidity | Pressure | Rain* | Wind** | Luminosity | Snow |
|---|---|---|---|---|---|---|---|
| 1787859597 | 21.11° C | 68% | 1007 hPa | 0 mm | - | - | - |
| 1787858752 | 21.67° C | 67% | 1007 hPa | 0 mm | - | - | - |
| 1787858458 | 21.67° C | 66% | 1007 hPa | 0 mm | - | - | - |
| 1787857612 | 21.67° C | 66% | 1007 hPa | 0 mm | - | - | - |
| 1787857316 | 21.67° C | 66% | 1006.9 hPa | 0 mm | - | - | - |
| 1787856471 | 21.67° C | 67% | 1006.5 hPa | 0 mm | - | - | - |
| 1787856176 | 22.22° C | 68% | 1006.5 hPa | 0 mm | - | - | - |
| 1787855331 | 22.22° C | 69% | 1006.5 hPa | 0 mm | - | - | - |
| 1787855036 | 22.22° C | 69% | 1006.6 hPa | 0 mm | - | - | - |
| 1787854192 | 22.22° C | 70% | 1006.7 hPa | 0 mm | - | - | - |
| 1787853898 | 22.22° C | 70% | 1006.8 hPa | 0 mm | - | - | - |
| 1787853052 | 22.78° C | 68% | 1006.9 hPa | 0 mm | - | - | - |
| 1787852756 | 22.78° C | 67% | 1006.8 hPa | 0 mm | - | - | - |
| 1787851913 | 23.33° C | 65% | 1006.8 hPa | 0.25 mm | - | - | - |
| 1787851616 | 23.33° C | 65% | 1006.8 hPa | 0.25 mm | - | - | - |
| 1787850772 | 23.33° C | 62% | 1006.7 hPa | 0.25 mm | - | - | - |
| 1787850477 | 23.89° C | 62% | 1006.8 hPa | 0.25 mm | - | - | - |
| 1787849631 | 23.89° C | 63% | 1006.8 hPa | 0.25 mm | - | - | - |
| 1787849337 | 23.89° C | 63% | 1006.7 hPa | 0.25 mm | - | - | - |
| 1787848492 | 24.44° C | 60% | 1006.7 hPa | 0 mm | - | - | - |
| 1787848198 | 24.44° C | 60% | 1006.7 hPa | 0 mm | - | - | - |
| 1787847351 | 25° C | 61% | 1006.6 hPa | 0 mm | - | - | - |
| 1787847057 | 25° C | 70% | 1006.6 hPa | 0 mm | - | - | - |
| 1787846213 | 23.89° C | 70% | 1006.7 hPa | 0 mm | - | - | - |
| 1787845917 | 23.89° C | 72% | 1006.9 hPa | 0 mm | - | - | - |
* Rain latest hour (hover to see other rain measurements)
** Current wind speed in m/s (hover to see current wind gust speed)